HONGHU 1

导读

HONGHU 1(洪湖一号)卫星由中国天仪研究院研发,于2023年12月8日由蓝箭航天朱雀二号Y3运载火箭发射升空,该星是朱雀二号Y3箭搭载的三颗卫星之一。其主要用于开展与通信载荷、功率载荷、遥感载荷相关的空间科学实验任务,将为我国商业航天领域相关技术验证与科研探索提供支撑,推动商业航天多载荷技术发展。

Basic Information
目录编号:
58554
目录名称:
HONGHU 1
国际标识:
2023-193B
轨道中心:
EARTH
卫星名称:
HONGHU 1
卫星全名:
HONGHU 1
卫星状态:
已陨落 最后检测时间 2025-03-04
发射日期:
2023-12-08 UTC
国别 :
中国 (CN)
星等 :
--
Orbit Information
数据来源 国际轨道数据
星历时间: 2025-03-01T06:27:48+0800
轨道信息已过期500天
半长轴: 6516.996km
偏心率: 0.0010152
轨道倾角: 97.205°
近地点辐角 234.743°
升交点赤经 79.466°
平近点角 125.292°
近地点: 132.244km
远地点: 145.478km
周期: 87.263分钟
每日圈数: 16.501811
Detailed Information
使用方式:
暂无